Other Surface Observations
Issued by NWS

Home | Current Version | Previous Version | Text Only | Print | Product List | Glossary On
Versions: 1 2 3 4 5 6 7 8 9 10 11 12 13 14 15 16 17 18 19 20 21 22 23 24 25 26 27 28 29 30 31 32 33 34 35 36 37 38 39 40 41 42 43 44 45 46 47 48 49 50
171
SXUS52 KTAE 132318
OSOTAE
OSOTAE
North Florida/South Alabama/Southwest Georgia Weather Roundup
National Weather Service Tallahassee Florida
600 PM EST SAT FEB 13 2016

Note: "fair" indicates few or no clouds below 12,000 feet with no
significant weather and/or obstructions to visibility.

!FLZ017-115-028-034-025-140000
...North Florida...

CITY           SKY/WX    TMP DP  RH WIND       PRES   REMARKS
TALLAHASSEE    CLEAR     59  14  17 N7        30.29R
APALACHICOLA   CLEAR     59  20  22 N7        30.28S
PERRY          CLEAR     58  13  16 N5        30.28R
CROSS CITY       N/A     61  16  17 N7        30.26R
JACKSONVILLE   CLEAR     51  36  56 E7        30.27R
$$

!FLZ112-006-005-002-011-140000
...Florida Panhandle...

CITY           SKY/WX    TMP DP  RH WIND       PRES   REMARKS
MARIANNA       CLEAR     56  15  20 N7        30.30S
BONIFAY        NOT AVBL
PANAMA CITY NW FAIR      57  20  23 N9        30.29S
TYNDALL AFB    CLEAR     59  20  22 N6        30.30R
TYND DRONE APT FAIR      57  19  22 MISG      30.29S
DE FUNIAK SPR  FAIR      54  11  18 N8        30.32R
EGLIN AFB      PTCLDY    59  14  17 N9        30.31R
DESTIN         CLEAR     59  21  23 N9        30.31R
HURLBURT       CLEAR     58  15  18 N8        30.31R
CRESTVIEW      CLEAR     56  16  20 N3        30.34R
PENSACOLA      CLEAR     58  20  22 N8        30.33R
$$

!ALZ063-066-140000
...South Alabama...

CITY           SKY/WX    TMP DP  RH WIND       PRES   REMARKS
DOTHAN         CLEAR     52  12  20 NW12      30.35R
OZARK CAIRNS   CLEAR     53  15  22 N9        30.32R
FT RUCKER HELI CLEAR     53  14  21 N7        30.32R
RUCKER HELI 3  FAIR      52  13  21 N7        30.34R
RUCKER HELI 2  NOT AVBL
FLORALA APT    CLEAR     51  19  28 N3        30.35R
ANDALUSIA      CLEAR     57  15  19 N7        30.34R
TROY           CLEAR     51  10  19 N8        30.35R
EUFALA         FAIR      51  13  21 VRB5      30.32S
MOBILE         PTCLDY    57  21  24 N10       30.34S
$$

!GAZ120>161-140000
...Southwest and South Central Georgia...

CITY           SKY/WX    TMP DP  RH WIND       PRES   REMARKS
THOMASVILLE    FAIR      52  23  32 N6        30.30S
BAINBRIDGE     CLEAR     54  18  24 N7        30.31S
MOODY AFB      CLEAR     52  20  29 NW7       30.29R
VALDOSTA       CLEAR     52  20  28 MISG      30.29R
MOULTRIE       CLEAR     52  23  32 N5        30.31R
BLAKELY        CLEAR     54  19  26 N5        30.33R
ALBANY         CLEAR     52  12  20 NW9       30.34R
TIFTON         FAIR      50  19  29 N7        30.29S
FITZGERALD     FAIR      51   8  18 N9        30.32F
CORDELE        FAIR      51   8  17 N8        30.34R
AMERICUS       FAIR      46  14  27 N6        30.35R WCI  43
HOMERVILLE     FAIR      54  27  35 NW6       30.30R
$$

!GMZ750-755-770-775-140000
...Coastal and Buoy Obs...

STATION/POSITION TIME  TEMP    WIND        PRES    VSBY  WAVE
                       AIR SEA DIR/SP/G                  HT/PER
                 (UTC) (F)     (DEG/KT/KT) (MB)    (MI)  (FT/S)
KEATON BEACH     2300   59      10/  4/  5 1024.9R
CEDAR KEY        2300   56     310/  6/  9 1024.8R
C TOWER          NOT AVBL
APALACHICOLA BUO 2250   58 66   10/ 10/ 14 1025.0F         5/ 7
PANAMA CITY BUOY 2250   58 68   30/ 12/ 14 1026.1R         4/ 6
MOBILE BUOY      NOT AVBL
ORANGE BCH AL BU 2250   59 65  310/  4/  6 1026.5R         1/ 5
$$




USA.gov is the U.S. government's official web portal to all federal, state and local government web resources and services.